SCP
9 10 11 12 11 9 8 8 8 10 11 11 9 8 8 7 5 4 4 4 5 6 7 7 7 7 6 5 5 5 4 4 5 4 2 2 3 3 4 4 5 4 4
9 10 11 12 11 10 9 9 10 12 13 12 9 8 8 7 6 5 5 5 5 6 6 6 7 7 6 5 5 4 4 4 4 3 2 2 3 3 4 5 5 4 4
10 10 11 11 11 10 9 10 12 15 15 12 9 9 8 7 7 8 8 7 5 5 6 6 6 6 5 5 4 3 3 4 4 3 3 3 2 3 4 4 4 4 4
11 11 10 11 10 10 9 9 11 14 14 11 10 9 9 8 9 10 10 8 6 6 6 6 5 5 6 5 4 3 4 4 4 3 3 3 2 2 2 2 3 3 3
14 13 11 11 10 10 10 9 10 12 12 12 12 11 9 9 9 9 10 10 9 9 8 7 6 6 6 4 3 3 3 4 3 3 2 3 2 2 2 2 2 2 2
17 15 13 12 10 9 9 9 10 11 12 14 14 12 9 8 7 6 8 11 12 11 10 8 8 6 4 2 2 2 2 2 2 2 2 2 3 3 2 2 2 2 2
18 16 14 13 12 10 8 8 9 11 12 12 11 10 8 6 5 4 6 11 14 13 11 10 9 6 4 2 1 1 1 1 2 2 2 2 3 3 2 2 2 2 2
18 15 13 13 14 12 9 8 9 10 10 9 8 7 7 6 5 4 5 9 12 12 11 11 11 8 4 2 2 2 2 2 1 1 1 2 2 2 3 2 2 2 2
15 13 12 13 15 14 12 10 10 9 8 7 7 7 7 7 5 3 4 8 10 10 10 10 10 6 3 2 2 3 2 2 2 1 1 1 1 2 2 3 3 3 2
11 11 12 14 15 15 14 13 11 10 9 9 9 9 10 9 6 2 3 7 9 8 7 6 5 3 1 1 2 3 3 3 2 2 2 1 1 1 2 2 3 3 3
8 8 10 12 13 14 14 14 13 12 11 12 12 12 12 10 5 1 2 6 8 7 5 3 2 1 1 1 1 3 3 3 3 3 2 2 2 2 2 2 2 3 2
5 6 7 8 9 11 13 14 14 13 13 13 13 13 12 8 3 1 1 3 5 5 3 2 1 1 0 0 1 1 2 3 4 4 3 2 2 2 2 2 2 2 2
4 4 5 5 7 10 12 14 14 14 13 12 13 12 9 5 2 0 0 1 2 2 2 1 1 0 0 0 0 0 1 2 4 5 4 3 2 2 2 2 3 3 3
4 4 4 4 5 8 11 13 13 13 12 13 14 13 7 3 2 1 0 1 1 1 1 0 0 0 0 0 0 0 1 2 3 4 4 4 3 2 2 2 3 3 2
4 4 3 3 3 5 8 9 10 11 12 14 15 13 7 3 2 1 1 0 0 0 0 0 0 0 0 1 1 1 1 2 3 4 4 4 3 3 2 2 2 2 2
4 4 3 3 3 4 5 6 6 7 8 10 12 9 5 2 1 1 0 0 0 0 0 0 1 1 1 1 1 1 1 2 2 3 4 4 3 3 2 2 2 2 2
3 3 4 5 6 6 7 7 5 4 4 4 5 4 2 1 0 0 0 0 0 0 0 0 1 1 1 1 1 1 1 1 2 3 3 3 3 2 2 2 2 2 2
3 3 4 6 7 8 9 9 7 4 2 1 1 1 0 0 0 0 0 0 0 0 0 0 0 0 1 1 1 1 1 1 2 2 3 3 2 2 2 2 2 2 2
3 3 4 5 6 7 8 7 6 4 2 1 0 0 0 0 0 0 0 0 0 0 0 0 0 0 0 1 1 1 1 1 1 2 2 2 2 2 2 2 2 2 2
2 2 2 3 4 5 5 5 4 2 1 0 0 0 0 0 0 0 0 0 0 0 0 0 0 0 0 0 0 1 1 1 1 1 1 1 2 2 2 2 2 2 2
2 1 2 2 3 3 3 3 2 1 1 0 0 0 0 0 0 0 0 0 0 0 0 0 0 0 0 0 0 0 1 1 1 1 1 1 1 2 2 2 2 2 2
2 1 1 2 2 2 3 3 2 1 1 1 0 0 0 0 0 0 0 0 0 0 0 0 0 0 0 0 1 1 1 1 1 1 1 1 1 1 1 1 1 1 2
1 1 1 2 2 2 2 2 1 1 1 1 0 0 0 0 0 0 0 0 0 0 0 0 0 0 0 1 1 1 1 1 1 1 1 1 1 1 1 1 1 1 1
1 1 1 1 1 1 1 1 1 1 1 1 0 0 0 0 0 0 0 0 0 0 0 0 0 0 0 1 1 0 0 1 1 1 1 1 1 1 0 0 0 0 0
1 1 1 1 0 0 0 0 0 0 0 0 0 0 0 0 0 0 0 0 0 0 0 0 0 0 0 0 0 0 0 0 0 0 1 1 1 1 0 0 0 0 0
1 1 1 0 0 0 0 0 0 0 0 0 0 0 0 0 0 0 0 0 0 0 0 0 0 0 0 0 0 0 0 0 0 0 0 0 0 1 0 0 0 0 0
Wind_Speed
6 4 4 5 4 3 3 2 2 1 1 1 1 1 2 2 2 2 2 2 2 2 2 2 2 2 1 1 2 1 1 1 1 2 1 0 1 1 2 2 3 4 6
5 4 4 4 4 3 3 2 2 2 2 2 2 2 2 2 2 2 3 2 2 2 2 1 2 1 1 1 1 1 1 1 2 2 1 1 1 2 2 3 3 4 4
5 5 4 4 4 3 3 2 2 2 2 2 2 2 2 2 2 2 3 3 2 2 1 1 1 1 1 1 1 1 1 2 1 2 2 1 1 1 1 3 4 3 4
4 4 4 4 3 3 3 3 3 3 2 2 2 2 2 2 2 2 2 2 2 1 1 1 1 1 1 1 1 1 1 2 2 2 2 2 2 2 1 2 3 2 3
3 4 4 4 4 4 3 3 3 3 3 2 3 3 3 2 1 1 2 2 2 1 1 1 1 1 1 1 1 1 1 1 2 2 2 2 1 1 1 2 2 2 3
3 4 3 3 4 4 4 4 4 3 2 2 2 2 1 1 1 1 1 2 2 2 2 2 2 3 3 3 2 3 4 3 2 2 2 2 2 1 1 2 2 2 3
3 3 3 3 4 4 5 4 3 2 2 2 2 1 1 1 1 1 1 2 3 3 2 2 3 2 3 2 2 3 3 4 5 3 3 3 3 2 2 3 3 3 4
2 2 2 2 3 3 3 3 2 2 2 1 1 1 1 1 2 2 2 3 3 2 2 2 2 1 1 1 2 2 2 2 3 3 3 3 3 2 2 3 4 4 4
2 2 2 2 2 2 3 3 2 2 1 2 2 1 1 1 2 3 2 2 3 3 2 1 1 1 1 0 2 2 3 2 2 2 3 4 5 5 3 2 3 3 4
2 2 2 2 2 2 3 3 2 2 2 2 1 1 1 2 2 2 2 2 2 2 1 1 2 2 2 1 2 2 3 3 3 3 3 4 5 5 6 4 3 3 3
1 1 2 1 2 3 3 2 2 2 2 1 1 1 1 2 3 2 2 2 2 2 1 1 1 2 2 2 2 3 4 4 4 4 4 3 3 3 2 3 4 3 3
1 1 1 2 2 2 2 2 2 2 2 2 1 1 1 2 3 3 3 2 2 2 1 0 1 3 2 3 4 5 6 5 4 3 3 2 2 2 2 3 3 4 4
2 1 1 1 2 2 2 2 2 1 2 2 2 1 1 1 3 3 3 2 1 1 1 1 1 4 4 4 6 7 5 4 3 3 3 3 2 2 2 2 2 3 4
1 1 1 1 2 2 1 1 1 1 1 1 1 1 1 1 2 1 1 1 1 1 1 2 3 5 5 5 4 4 4 4 3 3 2 2 2 2 2 2 2 2 3
0 1 0 1 1 2 1 1 1 2 1 1 1 1 0 1 0 1 1 1 1 0 2 2 2 2 2 2 2 2 2 2 2 2 2 2 2 2 2 2 2 2 2
0 1 1 1 1 2 2 2 4 3 4 3 2 1 1 2 3 3 2 1 1 1 1 2 2 2 2 1 2 2 2 2 2 2 2 2 2 2 2 2 2 2 2
1 1 1 1 1 1 2 2 2 1 2 2 1 1 2 2 2 2 1 0 1 1 2 2 2 2 2 1 1 1 1 1 2 2 1 2 2 2 2 2 2 2 2
1 1 1 1 1 1 1 1 2 2 1 0 1 1 3 3 2 2 1 0 2 2 2 2 1 1 1 1 1 1 1 1 1 1 1 2 2 2 2 2 2 2 3
1 1 1 1 1 1 1 1 1 2 2 1 1 1 2 2 2 2 2 2 2 2 2 1 1 1 1 1 2 2 1 1 2 1 1 1 2 2 2 3 3 3 3
1 1 2 2 2 2 2 2 2 2 2 1 1 1 2 2 1 2 2 2 2 1 1 1 1 1 1 1 1 1 2 1 2 2 2 2 2 2 2 3 3 3 2
1 1 3 3 2 1 1 1 1 1 1 1 1 1 3 2 2 2 2 2 2 1 0 0 1 1 1 1 2 2 3 2 2 3 3 2 2 2 2 3 3 3 3
2 1 1 1 1 1 1 1 1 1 1 1 1 2 5 3 2 1 1 0 0 0 0 0 0 1 1 2 2 3 3 3 3 3 3 3 2 2 3 3 3 3 3
2 1 1 1 1 1 2 2 2 1 1 1 1 1 2 2 1 1 0 0 0 1 1 2 1 2 3 3 3 3 3 3 3 4 4 3 3 3 3 3 4 4 4
2 2 2 1 1 2 2 2 2 1 1 0 0 0 1 1 1 0 1 1 1 1 2 2 2 3 3 3 3 3 3 3 4 4 5 4 4 3 3 3 3 4 4
3 3 3 2 2 2 2 2 1 1 1 0 0 1 0 0 0 1 1 1 2 2 2 1 1 2 3 4 5 4 3 4 4 4 4 4 4 5 5 5 4 4 4
3 3 2 2 2 1 2 2 1 1 1 1 0 1 1 1 1 1 1 1 1 1 1 1 2 3 3 3 4 4 3 3 4 5 4 4 4 4 5 4 5 5 5
Wind_Direction
174 177 169 178 181 193 205 196 187 187 205 197 199 231 232 216 215 218 225 210 210 216 227 227 235 231 263 289 302 305 294 275 253 280 318 86 93 153 167 210 197 187 199
172 174 178 180 184 196 196 188 190 200 220 209 207 221 238 226 211 214 227 230 225 222 225 238 251 255 258 278 303 304 289 265 236 254 269 243 223 211 199 222 223 218 205
174 180 180 190 189 196 190 193 201 208 218 221 218 217 235 244 226 225 230 233 235 227 223 232 240 247 265 286 295 301 305 301 265 239 250 248 233 224 225 242 248 239 239
178 180 182 189 190 198 199 201 209 217 215 218 224 223 220 228 234 237 239 235 228 213 212 225 229 220 228 267 275 293 298 302 296 278 265 257 244 237 223 248 265 250 256
184 180 184 188 193 200 198 207 212 221 223 211 226 232 234 224 234 227 255 239 226 228 235 232 220 171 173 227 274 280 294 300 297 284 272 268 251 248 247 260 267 271 266
195 188 178 191 196 197 200 205 208 215 222 226 234 237 245 242 161 167 233 243 240 230 230 224 198 177 183 198 232 247 243 247 263 276 283 281 277 280 285 282 279 277 274
195 196 187 201 201 198 204 199 198 196 201 232 245 215 187 177 161 174 227 238 248 242 231 232 244 205 180 213 233 243 251 245 234 243 265 278 287 289 282 285 284 283 272
186 202 202 203 192 189 185 178 173 167 196 223 241 227 182 196 194 196 234 236 244 234 220 225 223 185 209 243 260 258 255 252 241 231 243 269 287 309 296 273 276 279 277
182 197 200 198 185 174 159 157 156 159 190 219 223 218 188 190 215 205 212 240 232 231 224 222 201 151 147 203 265 283 293 282 273 265 251 249 260 270 268 276 273 274 280
206 197 193 167 160 170 159 161 161 166 192 215 207 207 187 158 183 189 208 244 244 242 198 148 117 141 160 194 260 272 276 285 290 283 271 255 248 248 237 227 250 268 278
224 172 151 147 157 160 155 156 153 176 188 201 212 206 196 152 153 167 198 260 280 267 231 182 141 147 179 214 259 267 265 281 279 270 261 255 247 243 223 214 224 241 261
36 121 132 137 168 152 141 152 158 182 190 202 215 224 198 146 146 178 203 244 282 283 279 109 150 185 221 242 244 255 273 283 268 268 272 275 271 264 252 241 234 235 240
57 70 115 131 129 121 139 161 168 191 216 223 209 219 189 133 137 156 199 225 245 275 324 344 253 233 251 252 245 250 258 258 260 265 272 277 278 283 284 270 251 239 247
71 82 115 135 129 131 157 166 164 197 226 239 216 218 174 137 123 133 205 207 202 217 267 265 242 247 257 258 257 238 232 239 247 262 275 287 300 301 298 291 283 276 274
69 129 133 181 158 137 103 44 71 59 54 4 349 346 217 144 127 184 218 229 232 265 285 257 242 234 233 234 236 232 229 228 241 258 273 283 290 291 291 295 289 285 283
358 296 234 200 170 159 137 96 52 78 98 90 66 71 71 121 151 137 126 134 178 199 243 253 262 261 258 253 248 238 228 224 230 241 253 269 280 287 293 295 292 292 292
339 310 291 285 223 190 161 150 129 75 61 59 67 106 159 166 164 172 164 214 251 201 224 243 247 256 268 261 265 276 268 245 231 237 242 257 271 279 292 297 299 299 300
296 253 265 265 260 241 193 186 167 163 167 225 298 201 191 187 192 204 196 244 238 221 238 254 268 285 290 306 311 311 316 317 302 274 273 278 275 287 297 300 293 294 293
292 276 279 288 280 260 218 205 201 181 177 161 151 162 204 202 205 231 212 230 252 253 245 255 297 338 357 1 350 341 332 334 337 320 303 298 300 295 297 302 302 302 296
254 252 255 257 260 249 231 217 212 192 179 163 189 161 147 171 196 192 203 228 252 257 263 339 347 353 2 355 354 353 341 336 338 329 323 318 303 295 300 305 307 304 304
251 206 229 258 268 278 278 272 244 204 177 159 189 152 152 195 208 201 199 211 236 262 108 21 343 345 359 359 2 356 348 351 6 352 334 321 320 323 313 305 308 311 312
280 248 239 271 272 270 283 289 276 231 207 210 210 174 171 202 213 184 190 215 222 265 338 93 50 30 27 19 18 11 4 4 3 355 339 332 330 329 323 322 326 322 313
274 278 277 273 276 256 250 262 254 229 217 220 215 166 173 196 163 107 76 51 44 36 41 56 50 42 46 50 41 31 15 3 351 345 339 336 335 334 329 322 321 325 327
252 255 259 245 248 262 262 265 263 241 201 140 151 156 150 170 168 145 119 104 89 74 69 61 56 51 47 42 42 40 31 12 354 341 335 326 324 326 318 313 313 320 325
253 239 238 240 236 244 248 258 264 260 232 184 168 143 151 172 136 105 97 102 106 100 84 69 52 43 46 52 52 49 40 26 14 351 330 320 321 320 319 318 317 319 318
252 244 232 231 235 246 254 257 253 238 233 218 184 145 153 139 108 73 78 88 96 104 106 98 72 55 48 59 67 68 58 35 8 344 320 316 318 323 326 318 320 322 324